Terug naar catalogus

STARLINK-6312

ActiefCommunicatieVLEO
NORAD 56536·PAYLOAD·🇺🇸 United States

Gelanceerd May 14, 2023 vanaf Cape Canaveral Space Force Station

Loading…

Volgende Passages (komende 24 uur)

TLE

VersSource: CelesTrak SupGP

Epoch: Sep 15, 2026, 02:04 UTC

1 56536C 23065AK  26258.08659722 -.00021417  00000+0 -77594-3 0  2582
2 56536  42.9996 237.2172 0000908 256.2531 330.0270 15.27580148    18

Volg STARLINK-6312 in realtime met AllMySat

Download on the App Store